sat.trackr.live / text

‹ back to catalog

FLOCK 4H-18

NORAD 66721 · 2025-276BH

PAYLOAD ACTIVE UNKNOWN

§ Identity

Operator
Country
US
Launch date
2025-11-28
Launch site
AFWTR
Launch vehicle
Mass (kg)
RCS (m²)

Purposes: earth_obs

External: N2YO · Heavens-Above · Gunter

§ Orbital elements

Epoch: 2026-09-20T03:20:21.192288Z

Period
94.69 min
Inclination
97.4099°
Eccentricity
0.0005146
Mean motion
15.20801900 rev/d
Perigee alt
499.9 km
Apogee alt
507.0 km
Semi-major
6,881.6 km
B*
2.0667e-4
RAAN
334.9769°
Arg perigee
67.5170°
Mean anomaly
292.6610°
Rev number
4,484

§ Raw data

FLOCK 4H-181 66721U 25276BH  26263.13913417  .00004489  00000+0  20667-3 0  99902 66721  97.4099 334.9769 0005146  67.5170 292.6610 15.20801900 44847

JSON: /api/v1/satellites/66721 · /tle

For live sub-satellite position, see the globe view (requires WebGL).

§ Visibility from observer

Set your observer location to see the next 7 days of passes ≥ 10°. The values pass through the URL so the page stays shareable.

No JS? Fill the form by hand. The geolocation button needs JavaScript.